[[{"header":{"parameterUnit":"m.s-1","parameterCategory":1,"la1":30.2992,"la2":30.254,"lo1":-89.0895,"lo2":-89.0443,"dy":0.0025,"dx":0.0025,"nx":19,"ny":19,"refTime":"2026-04-25T09:00:00:Z","depth":0,"parameterNumber":2,"parameterNumberName":"U-component_of_WINDS"},"data":[0,0,0,-0.5886,-0.5886,-0.59,-0.59,-0.5938,-0.5938,0,0,0,0,0,0,0,0,0,0,0,-0.5893,-0.5893,-0.5886,-0.5886,-0.59,-0.59,-0.5937,-0.5938,0,0,0,0,0,0,0,0,0,0,0,-0.5892,-0.5893,-0.5894,-0.5886,-0.59,-0.59,-0.5937,-0.592,0,0,0,0,0,0,0,0,0,0,-0.5903,-0.592,-0.5893,-0.5894,-0.5886,-0.59,-0.59,-0.5919,-0.5921,-0.5939,0,-0.5957,0,-0.5948,-0.5942,-0.5942,0,0,0,-0.5879,-0.5919,-0.5912,-0.5894,-0.5887,-0.59,-0.5892,-0.592,-0.5923,-0.5942,-0.5958,-0.5959,-0.5949,-0.5942,-0.5942,-0.6068,-0.6069,0,0,-0.5878,-0.5901,-0.591,-0.5914,-0.5912,-0.5891,-0.5892,-0.5921,-0.594,-0.5958,-0.5959,-0.5949,-0.5942,-0.5943,-0.6067,-0.6068,0,0,0,-0.5881,-0.5901,-0.5893,-0.5913,-0.5914,-0.5892,-0.5893,-0.5939,-0.5934,-0.5959,-0.595,-0.5943,-0.5943,-0.6066,-0.6067,-0.6135,0,0,0,-0.588,-0.5903,-0.5894,-0.5908,-0.5914,-0.5926,-0.591,-0.5932,-0.5935,-0.595,-0.5943,-0.5944,-0.6065,-0.6067,-0.6131,-0.6163,0,0,0,-0.5888,-0.5904,-0.5909,-0.591,-0.5916,-0.5925,-0.5922,-0.5932,-0.5929,-0.5942,-0.5944,-0.6064,-0.6066,-0.6127,-0.6157,-0.6201,0,0,0,-0.5904,-0.5972,-0.5911,-0.5983,-0.5916,-0.5967,-0.5922,-0.5959,-0.5978,-0.5943,-0.6065,-0.6067,-0.6126,-0.6153,-0.6197,-0.6242,-0.6262,0,0,-0.6003,-0.5984,-0.6025,-0.5971,-0.6038,-0.5963,-0.604,-0.6037,-0.6018,-0.6053,-0.6055,-0.6132,-0.6157,-0.62,-0.6374,-0.6391,0,0,0,-0.6064,-0.6093,-0.6106,-0.6123,-0.6121,-0.6121,-0.6102,-0.61,-0.6128,-0.604,-0.616,-0.6174,-0.6199,-0.6219,-0.6233,-0.6252,-0.6078,-0.6078,-0.6077,-0.6238,-0.6207,-0.6271,-0.6242,-0.626,-0.6239,-0.625,-0.6245,-0.6211,-0.624,-0.625,-0.6358,-0.6383,-0.6393,-0.6413,-0.6272,-0.6272,-0.6272,-0.6272,-0.6378,-0.6414,-0.6364,-0.6408,-0.6376,-0.6413,-0.6395,-0.637,-0.64,-0.6349,-0.637,-0.6315,-0.6413,-0.6428,-0.6277,-0.6276,-0.6276,-0.6275,-0.6275,-0.6488,-0.6499,-0.6494,-0.6514,-0.6534,-0.6503,-0.6533,-0.6503,-0.6476,-0.6496,-0.6502,-0.6501,-0.6495,-0.6501,-0.6502,-0.6502,-0.6502,-0.6503,-0.6503,-0.6602,-0.6594,-0.6622,-0.6623,-0.6629,-0.6633,-0.6612,-0.6618,-0.6616,-0.6592,-0.6592,-0.6555,-0.6428,-0.6396,-0.6509,-0.6508,-0.6507,-0.6506,-0.6506,-0.6754,-0.6714,-0.6757,-0.6763,-0.676,-0.678,-0.6742,-0.6755,-0.6756,-0.6772,-0.6729,-0.6641,-0.6621,-0.6609,-0.6582,-0.6736,-0.6736,-0.6737,-0.6737,-0.6845,-0.6831,-0.6866,-0.6877,-0.6885,-0.6853,-0.6903,-0.6887,-0.6864,-0.6862,-0.6836,-0.6798,-0.6788,-0.6774,-0.6758,-0.6733,-0.6922,-0.6922,-0.6922,-0.6935,-0.692,-0.6967,-0.6942,-0.6937,-0.6934,-0.6979,-0.6994,-0.6961,-0.6929,-0.686,-0.6852,-0.6791,-0.6773,-0.6739,-0.6716,-0.6668,0,0]},{"header":{"parameterUnit":"m.s-1","parameterCategory":1,"la1":30.2992,"la2":30.254,"lo1":-89.0895,"lo2":-89.0443,"dy":0.0025,"dx":0.0025,"nx":19,"ny":19,"refTime":"2026-04-25T09:00:00:Z","depth":0,"parameterNumber":3,"parameterNumberName":"V-component_of_WINDS"},"data":[0,0,0,4.1481,4.1481,4.1486,4.1487,4.1481,4.1481,0,0,0,0,0,0,0,0,0,0,0,4.1473,4.1472,4.1481,4.1481,4.1486,4.1487,4.1481,4.1481,0,0,0,0,0,0,0,0,0,0,0,4.1473,4.1472,4.1472,4.1481,4.1486,4.1487,4.1481,4.1481,0,0,0,0,0,0,0,0,0,0,4.1477,4.1464,4.1473,4.1472,4.1481,4.1486,4.1487,4.1481,4.1481,4.1473,0,4.1466,0,4.1473,4.148,4.1479,0,0,0,4.1485,4.1464,4.1472,4.1472,4.1481,4.1486,4.1485,4.1481,4.1481,4.1473,4.1466,4.1466,4.1473,4.1479,4.1479,4.1423,4.1423,0,0,4.1485,4.147,4.1472,4.1471,4.1471,4.1485,4.1485,4.1481,4.1472,4.1466,4.1466,4.1473,4.1479,4.1479,4.1424,4.1423,0,0,0,4.1481,4.147,4.1477,4.1471,4.1473,4.1485,4.1485,4.1472,4.1476,4.1466,4.1473,4.1479,4.1479,4.1424,4.1424,4.1387,0,0,0,4.1481,4.1468,4.1477,4.1468,4.1473,4.1473,4.1477,4.1476,4.1476,4.1473,4.1479,4.1479,4.1425,4.1424,4.1389,4.1372,0,0,0,4.1474,4.1467,4.1466,4.1467,4.147,4.1474,4.1477,4.1477,4.148,4.1479,4.1479,4.1425,4.1424,4.1391,4.1376,4.1353,0,0,0,4.1463,4.1433,4.1465,4.1434,4.1469,4.1451,4.1478,4.1465,4.146,4.1479,4.1425,4.1424,4.1392,4.1378,4.1355,4.1332,4.1321,0,0,4.1417,4.1427,4.141,4.1438,4.1411,4.1452,4.1419,4.1427,4.144,4.1427,4.1426,4.1389,4.1376,4.1354,4.1265,4.1256,0,0,0,4.139,4.1377,4.1373,4.1368,4.1375,4.1378,4.1393,4.1396,4.1386,4.1431,4.1375,4.1368,4.1355,4.1345,4.1337,4.1327,4.1418,4.1418,4.1418,4.1305,4.1323,4.1295,4.1313,4.1307,4.1323,4.1319,4.1325,4.1345,4.1331,4.1328,4.1272,4.1259,4.1254,4.1243,4.1317,4.1317,4.1317,4.1316,4.1239,4.1224,4.1249,4.1232,4.125,4.1235,4.1247,4.1262,4.1249,4.1276,4.1266,4.1294,4.1243,4.1235,4.1314,4.1314,4.1315,4.1315,4.1315,4.1185,4.1181,4.1185,4.1179,4.1171,4.119,4.1176,4.1193,4.1209,4.1199,4.1197,4.1197,4.12,4.1196,4.1196,4.1196,4.1196,4.1196,4.1196,4.1128,4.1134,4.1121,4.1124,4.1122,4.1122,4.1136,4.1134,4.1136,4.1149,4.1149,4.1169,4.1235,4.1252,4.1193,4.1193,4.1194,4.1194,4.1194,4.1055,4.1074,4.1055,4.1053,4.1057,4.1048,4.1069,4.1063,4.1064,4.1056,4.1078,4.1124,4.1135,4.1141,4.1155,4.1075,4.1075,4.1075,4.1075,4.101,4.1017,4.1001,4.0997,4.0994,4.1011,4.0987,4.0996,4.1008,4.1009,4.1023,4.1042,4.1048,4.1056,4.1064,4.1077,4.0978,4.0978,4.0978,4.0966,4.0974,4.0951,4.0965,4.0968,4.097,4.0948,4.094,4.0958,4.0975,4.101,4.1015,4.1046,4.1055,4.1074,4.1086,4.111,0,0]}]]